iso_date,epoch_date,Year,Hour,Min,DOY,POS_DOY,Lat,Lon,BP,Ts,Ta,has_bp,has_ts,has_ta,BuoyID,Buoy_Type,Buoy_Owner,Logistics,Hemisphere
2020-07-06T18:00:00Z,1594058400,2020,18,0,188.75,188.75,59.05,-59.175,-999.00,5.43,-999.0,no,yes,no,300234068245250,SVPGHI,AOML,UNKNOWN,North
2020-07-06T19:00:02Z,1594062003,2020,19,0,188.7917,188.7917,59.038,-59.176,-999.00,5.76,-999.0,no,yes,no,300234068245250,SVPGHI,AOML,UNKNOWN,North
2020-07-06T19:59:57Z,1594065597,2020,20,0,188.8333,188.8333,59.028,-59.173,-999.00,5.59,-999.0,no,yes,no,300234068245250,SVPGHI,AOML,UNKNOWN,North
2020-07-06T21:00:00Z,1594069200,2020,21,0,188.875,188.875,59.013,-59.167,-999.00,5.42,-999.0,no,yes,no,300234068245250,SVPGHI,AOML,UNKNOWN,North
2020-07-06T22:00:02Z,1594072803,2020,22,0,188.9167,188.9167,59.0,-59.162,-999.00,5.41,-999.0,no,yes,no,300234068245250,SVPGHI,AOML,UNKNOWN,North
2020-07-06T22:59:57Z,1594076397,2020,23,0,188.9583,188.9583,58.99,-59.154,-999.00,5.49,-999.0,no,yes,no,300234068245250,SVPGHI,AOML,UNKNOWN,North
2020-07-07T00:00:00Z,1594080000,2020,0,0,189.0,189.0,58.98,-59.145,-999.00,5.32,-999.0,no,yes,no,300234068245250,SVPGHI,AOML,UNKNOWN,North
2020-07-07T01:00:02Z,1594083603,2020,1,0,189.0417,189.0417,58.973,-59.132,-999.00,5.27,-999.0,no,yes,no,300234068245250,SVPGHI,AOML,UNKNOWN,North
2020-07-07T01:59:57Z,1594087197,2020,2,0,189.0833,189.0833,58.965,-59.119,-999.00,5.23,-999.0,no,yes,no,300234068245250,SVPGHI,AOML,UNKNOWN,North
2020-07-07T03:00:00Z,1594090800,2020,3,0,189.125,189.125,58.962,-59.104,-999.00,5.21,-999.0,no,yes,no,300234068245250,SVPGHI,AOML,UNKNOWN,North
2020-07-07T04:01:03Z,1594094463,2020,4,1,189.1674,189.1674,58.958,-59.076,-999.00,5.12,-999.0,no,yes,no,300234068245250,SVPGHI,AOML,UNKNOWN,North
2020-07-07T04:59:57Z,1594097997,2020,5,0,189.2083,189.2083,58.954,-59.044,-999.00,5.19,-999.0,no,yes,no,300234068245250,SVPGHI,AOML,UNKNOWN,North
2020-07-07T06:00:00Z,1594101600,2020,6,0,189.25,189.25,58.946,-59.012,-999.00,5.15,-999.0,no,yes,no,300234068245250,SVPGHI,AOML,UNKNOWN,North
2020-07-07T07:00:02Z,1594105203,2020,7,0,189.2917,189.2917,58.94,-58.988,-999.00,5.14,-999.0,no,yes,no,300234068245250,SVPGHI,AOML,UNKNOWN,North
2020-07-07T07:59:57Z,1594108797,2020,8,0,189.3333,189.3333,58.938,-58.973,-999.00,5.17,-999.0,no,yes,no,300234068245250,SVPGHI,AOML,UNKNOWN,North
2020-07-07T09:00:00Z,1594112400,2020,9,0,189.375,189.375,58.937,-58.959,-999.00,5.19,-999.0,no,yes,no,300234068245250,SVPGHI,AOML,UNKNOWN,North
2020-07-07T10:00:02Z,1594116003,2020,10,0,189.4167,189.4167,58.942,-58.952,-999.00,5.28,-999.0,no,yes,no,300234068245250,SVPGHI,AOML,UNKNOWN,North
2020-07-07T10:59:57Z,1594119597,2020,11,0,189.4583,189.4583,58.949,-58.941,-999.00,5.4,-999.0,no,yes,no,300234068245250,SVPGHI,AOML,UNKNOWN,North
2020-07-07T12:00:00Z,1594123200,2020,12,0,189.5,189.5,58.959,-58.928,-999.00,5.34,-999.0,no,yes,no,300234068245250,SVPGHI,AOML,UNKNOWN,North
2020-07-07T13:00:02Z,1594126803,2020,13,0,189.5417,189.5417,58.967,-58.918,-999.00,5.55,-999.0,no,yes,no,300234068245250,SVPGHI,AOML,UNKNOWN,North
2020-07-07T13:59:57Z,1594130397,2020,14,0,189.5833,189.5833,58.977,-58.908,-999.00,5.66,-999.0,no,yes,no,300234068245250,SVPGHI,AOML,UNKNOWN,North
2020-07-07T15:00:00Z,1594134000,2020,15,0,189.625,189.625,58.983,-58.898,-999.00,5.61,-999.0,no,yes,no,300234068245250,SVPGHI,AOML,UNKNOWN,North
2020-07-07T16:00:02Z,1594137603,2020,16,0,189.6667,189.6667,58.991,-58.89,-999.00,5.92,-999.0,no,yes,no,300234068245250,SVPGHI,AOML,UNKNOWN,North
2020-07-07T16:59:57Z,1594141197,2020,17,0,189.7083,189.7083,58.997,-58.884,-999.00,5.96,-999.0,no,yes,no,300234068245250,SVPGHI,AOML,UNKNOWN,North
2020-07-07T18:00:00Z,1594144800,2020,18,0,189.75,189.75,59.0,-58.884,-999.00,5.88,-999.0,no,yes,no,300234068245250,SVPGHI,AOML,UNKNOWN,North
2020-07-07T19:00:02Z,1594148403,2020,19,0,189.7917,189.7917,59.003,-58.89,-999.00,5.63,-999.0,no,yes,no,300234068245250,SVPGHI,AOML,UNKNOWN,North
2020-07-07T20:00:57Z,1594152058,2020,20,1,189.834,189.834,59.004,-58.904,-999.00,5.83,-999.0,no,yes,no,300234068245250,SVPGHI,AOML,UNKNOWN,North
2020-07-07T21:00:00Z,1594155600,2020,21,0,189.875,189.875,59.01,-58.918,-999.00,5.8,-999.0,no,yes,no,300234068245250,SVPGHI,AOML,UNKNOWN,North
2020-07-07T22:00:02Z,1594159203,2020,22,0,189.9167,189.9167,59.018,-58.94,-999.00,5.86,-999.0,no,yes,no,300234068245250,SVPGHI,AOML,UNKNOWN,North
2020-07-07T22:59:57Z,1594162797,2020,23,0,189.9583,189.9583,59.025,-58.957,-999.00,5.69,-999.0,no,yes,no,300234068245250,SVPGHI,AOML,UNKNOWN,North
2020-07-08T00:00:00Z,1594166400,2020,0,0,190.0,190.0,59.031,-58.975,-999.00,5.69,-999.0,no,yes,no,300234068245250,SVPGHI,AOML,UNKNOWN,North
2020-07-08T01:00:02Z,1594170003,2020,1,0,190.0417,190.0417,59.034,-58.988,-999.00,5.69,-999.0,no,yes,no,300234068245250,SVPGHI,AOML,UNKNOWN,North
2020-07-08T01:59:57Z,1594173597,2020,2,0,190.0833,190.0833,59.034,-59.002,-999.00,5.67,-999.0,no,yes,no,300234068245250,SVPGHI,AOML,UNKNOWN,North
2020-07-08T03:00:00Z,1594177200,2020,3,0,190.125,190.125,59.028,-59.019,-999.00,5.58,-999.0,no,yes,no,300234068245250,SVPGHI,AOML,UNKNOWN,North
2020-07-08T04:03:56Z,1594181036,2020,4,4,190.1694,190.1694,59.025,-59.036,-999.00,5.51,-999.0,no,yes,no,300234068245250,SVPGHI,AOML,UNKNOWN,North
2020-07-08T04:59:57Z,1594184397,2020,5,0,190.2083,190.2083,59.017,-59.048,-999.00,5.47,-999.0,no,yes,no,300234068245250,SVPGHI,AOML,UNKNOWN,North
2020-07-08T06:00:00Z,1594188000,2020,6,0,190.25,190.25,59.01,-59.057,-999.00,5.4,-999.0,no,yes,no,300234068245250,SVPGHI,AOML,UNKNOWN,North
2020-07-08T07:00:02Z,1594191603,2020,7,0,190.2917,190.2917,58.999,-59.068,-999.00,5.27,-999.0,no,yes,no,300234068245250,SVPGHI,AOML,UNKNOWN,North
2020-07-08T08:00:57Z,1594195258,2020,8,1,190.334,190.334,58.988,-59.081,-999.00,5.22,-999.0,no,yes,no,300234068245250,SVPGHI,AOML,UNKNOWN,North
2020-07-08T09:01:00Z,1594198860,2020,9,1,190.3757,190.3757,58.978,-59.094,-999.00,5.24,-999.0,no,yes,no,300234068245250,SVPGHI,AOML,UNKNOWN,North
2020-07-08T10:01:03Z,1594202463,2020,10,1,190.4174,190.4174,58.973,-59.106,-999.00,5.29,-999.0,no,yes,no,300234068245250,SVPGHI,AOML,UNKNOWN,North
2020-07-08T10:59:57Z,1594205997,2020,11,0,190.4583,190.4583,58.971,-59.108,-999.00,5.38,-999.0,no,yes,no,300234068245250,SVPGHI,AOML,UNKNOWN,North
2020-07-08T12:00:00Z,1594209600,2020,12,0,190.5,190.5,58.964,-59.094,-999.00,5.32,-999.0,no,yes,no,300234068245250,SVPGHI,AOML,UNKNOWN,North
2020-07-08T13:00:02Z,1594213203,2020,13,0,190.5417,190.5417,58.956,-59.095,-999.00,5.27,-999.0,no,yes,no,300234068245250,SVPGHI,AOML,UNKNOWN,North
2020-07-08T13:59:57Z,1594216797,2020,14,0,190.5833,190.5833,58.946,-59.087,-999.00,5.29,-999.0,no,yes,no,300234068245250,SVPGHI,AOML,UNKNOWN,North
2020-07-08T15:00:00Z,1594220400,2020,15,0,190.625,190.625,58.932,-59.086,-999.00,5.38,-999.0,no,yes,no,300234068245250,SVPGHI,AOML,UNKNOWN,North
2020-07-08T16:00:02Z,1594224003,2020,16,0,190.6667,190.6667,58.916,-59.08,-999.00,5.42,-999.0,no,yes,no,300234068245250,SVPGHI,AOML,UNKNOWN,North
2020-07-08T17:03:59Z,1594227839,2020,17,4,190.7111,190.7111,58.903,-59.074,-999.00,5.44,-999.0,no,yes,no,300234068245250,SVPGHI,AOML,UNKNOWN,North
2020-07-08T18:00:00Z,1594231200,2020,18,0,190.75,190.75,58.893,-59.066,-999.00,5.37,-999.0,no,yes,no,300234068245250,SVPGHI,AOML,UNKNOWN,North
2020-07-08T19:01:03Z,1594234863,2020,19,1,190.7924,190.7924,58.886,-59.06,-999.00,5.41,-999.0,no,yes,no,300234068245250,SVPGHI,AOML,UNKNOWN,North
2020-07-08T20:03:59Z,1594238639,2020,20,4,190.8361,190.8361,58.885,-59.046,-999.00,5.47,-999.0,no,yes,no,300234068245250,SVPGHI,AOML,UNKNOWN,North
2020-07-08T21:03:01Z,1594242181,2020,21,3,190.8771,190.8771,58.882,-59.028,-999.00,5.46,-999.0,no,yes,no,300234068245250,SVPGHI,AOML,UNKNOWN,North
2020-07-08T22:00:02Z,1594245603,2020,22,0,190.9167,190.9167,58.88,-59.004,-999.00,5.45,-999.0,no,yes,no,300234068245250,SVPGHI,AOML,UNKNOWN,North
2020-07-08T22:59:57Z,1594249197,2020,23,0,190.9583,190.9583,58.879,-58.979,-999.00,5.41,-999.0,no,yes,no,300234068245250,SVPGHI,AOML,UNKNOWN,North
2020-07-09T00:00:00Z,1594252800,2020,0,0,191.0,191.0,58.877,-58.954,-999.00,5.38,-999.0,no,yes,no,300234068245250,SVPGHI,AOML,UNKNOWN,North
2020-07-09T01:00:02Z,1594256403,2020,1,0,191.0417,191.0417,58.879,-58.93,-999.00,5.37,-999.0,no,yes,no,300234068245250,SVPGHI,AOML,UNKNOWN,North
2020-07-09T01:59:57Z,1594259997,2020,2,0,191.0833,191.0833,58.881,-58.912,-999.00,5.34,-999.0,no,yes,no,300234068245250,SVPGHI,AOML,UNKNOWN,North
2020-07-09T03:00:00Z,1594263600,2020,3,0,191.125,191.125,58.882,-58.895,-999.00,5.33,-999.0,no,yes,no,300234068245250,SVPGHI,AOML,UNKNOWN,North
2020-07-09T04:00:02Z,1594267203,2020,4,0,191.1667,191.1667,58.884,-58.88,-999.00,5.32,-999.0,no,yes,no,300234068245250,SVPGHI,AOML,UNKNOWN,North
2020-07-09T04:59:57Z,1594270797,2020,5,0,191.2083,191.2083,58.89,-58.872,-999.00,5.32,-999.0,no,yes,no,300234068245250,SVPGHI,AOML,UNKNOWN,North
2020-07-09T06:00:00Z,1594274400,2020,6,0,191.25,191.25,58.898,-58.865,-999.00,5.31,-999.0,no,yes,no,300234068245250,SVPGHI,AOML,UNKNOWN,North
2020-07-09T07:00:02Z,1594278003,2020,7,0,191.2917,191.2917,58.907,-58.859,-999.00,5.29,-999.0,no,yes,no,300234068245250,SVPGHI,AOML,UNKNOWN,North
2020-07-09T08:01:58Z,1594281718,2020,8,2,191.3347,191.3347,58.916,-58.857,-999.00,5.29,-999.0,no,yes,no,300234068245250,SVPGHI,AOML,UNKNOWN,North
2020-07-09T09:00:00Z,1594285200,2020,9,0,191.375,191.375,58.925,-58.855,-999.00,5.31,-999.0,no,yes,no,300234068245250,SVPGHI,AOML,UNKNOWN,North
2020-07-09T10:00:02Z,1594288803,2020,10,0,191.4167,191.4167,58.931,-58.857,-999.00,5.35,-999.0,no,yes,no,300234068245250,SVPGHI,AOML,UNKNOWN,North
2020-07-09T10:59:57Z,1594292397,2020,11,0,191.4583,191.4583,58.936,-58.866,-999.00,5.4,-999.0,no,yes,no,300234068245250,SVPGHI,AOML,UNKNOWN,North
2020-07-09T12:00:00Z,1594296000,2020,12,0,191.5,191.5,58.936,-58.878,-999.00,5.39,-999.0,no,yes,no,300234068245250,SVPGHI,AOML,UNKNOWN,North
2020-07-09T13:00:02Z,1594299603,2020,13,0,191.5417,191.5417,58.935,-58.903,-999.00,5.4,-999.0,no,yes,no,300234068245250,SVPGHI,AOML,UNKNOWN,North
2020-07-09T13:59:57Z,1594303197,2020,14,0,191.5833,191.5833,58.938,-58.925,-999.00,5.52,-999.0,no,yes,no,300234068245250,SVPGHI,AOML,UNKNOWN,North
2020-07-09T15:00:00Z,1594306800,2020,15,0,191.625,191.625,58.942,-58.952,-999.00,5.51,-999.0,no,yes,no,300234068245250,SVPGHI,AOML,UNKNOWN,North
2020-07-09T16:00:02Z,1594310403,2020,16,0,191.6667,191.6667,58.94,-58.963,-999.00,5.53,-999.0,no,yes,no,300234068245250,SVPGHI,AOML,UNKNOWN,North
2020-07-09T16:59:57Z,1594313997,2020,17,0,191.7083,191.7083,58.932,-58.969,-999.00,5.56,-999.0,no,yes,no,300234068245250,SVPGHI,AOML,UNKNOWN,North
2020-07-09T18:00:00Z,1594317600,2020,18,0,191.75,191.75,58.922,-58.971,-999.00,5.71,-999.0,no,yes,no,300234068245250,SVPGHI,AOML,UNKNOWN,North
2020-07-09T19:00:02Z,1594321203,2020,19,0,191.7917,191.7917,58.903,-58.972,-999.00,5.68,-999.0,no,yes,no,300234068245250,SVPGHI,AOML,UNKNOWN,North
2020-07-09T19:59:57Z,1594324797,2020,20,0,191.8333,191.8333,58.885,-58.983,-999.00,5.49,-999.0,no,yes,no,300234068245250,SVPGHI,AOML,UNKNOWN,North
2020-07-09T21:01:00Z,1594328460,2020,21,1,191.8757,191.8757,58.871,-58.993,-999.00,5.43,-999.0,no,yes,no,300234068245250,SVPGHI,AOML,UNKNOWN,North
2020-07-09T22:00:02Z,1594332003,2020,22,0,191.9167,191.9167,58.861,-59.0,-999.00,5.41,-999.0,no,yes,no,300234068245250,SVPGHI,AOML,UNKNOWN,North
2020-07-09T23:03:59Z,1594335839,2020,23,4,191.9611,191.9611,58.852,-58.994,-999.00,5.43,-999.0,no,yes,no,300234068245250,SVPGHI,AOML,UNKNOWN,North
2020-07-10T00:01:00Z,1594339260,2020,0,1,192.0007,192.0007,58.844,-58.986,-999.00,5.42,-999.0,no,yes,no,300234068245250,SVPGHI,AOML,UNKNOWN,North
2020-07-10T01:03:56Z,1594343036,2020,1,4,192.0444,192.0444,58.839,-58.969,-999.00,5.41,-999.0,no,yes,no,300234068245250,SVPGHI,AOML,UNKNOWN,North
2020-07-10T01:59:57Z,1594346397,2020,2,0,192.0833,192.0833,58.836,-58.954,-999.00,5.4,-999.0,no,yes,no,300234068245250,SVPGHI,AOML,UNKNOWN,North
2020-07-10T03:00:00Z,1594350000,2020,3,0,192.125,192.125,58.83,-58.932,-999.00,5.39,-999.0,no,yes,no,300234068245250,SVPGHI,AOML,UNKNOWN,North
2020-07-10T04:02:03Z,1594353724,2020,4,2,192.1681,192.1681,58.828,-58.908,-999.00,5.38,-999.0,no,yes,no,300234068245250,SVPGHI,AOML,UNKNOWN,North
2020-07-10T04:59:57Z,1594357197,2020,5,0,192.2083,192.2083,58.825,-58.883,-999.00,5.37,-999.0,no,yes,no,300234068245250,SVPGHI,AOML,UNKNOWN,North
2020-07-10T06:00:00Z,1594360800,2020,6,0,192.25,192.25,58.822,-58.854,-999.00,5.36,-999.0,no,yes,no,300234068245250,SVPGHI,AOML,UNKNOWN,North
2020-07-10T07:00:02Z,1594364403,2020,7,0,192.2917,192.2917,58.82,-58.833,-999.00,5.36,-999.0,no,yes,no,300234068245250,SVPGHI,AOML,UNKNOWN,North
2020-07-10T07:59:57Z,1594367997,2020,8,0,192.3333,192.3333,58.821,-58.822,-999.00,5.36,-999.0,no,yes,no,300234068245250,SVPGHI,AOML,UNKNOWN,North
2020-07-10T09:00:00Z,1594371600,2020,9,0,192.375,192.375,58.823,-58.805,-999.00,5.37,-999.0,no,yes,no,300234068245250,SVPGHI,AOML,UNKNOWN,North
2020-07-10T10:00:02Z,1594375203,2020,10,0,192.4167,192.4167,58.833,-58.791,-999.00,5.36,-999.0,no,yes,no,300234068245250,SVPGHI,AOML,UNKNOWN,North
2020-07-10T11:00:57Z,1594378858,2020,11,1,192.459,192.459,58.842,-58.777,-999.00,5.39,-999.0,no,yes,no,300234068245250,SVPGHI,AOML,UNKNOWN,North
2020-07-10T12:01:00Z,1594382460,2020,12,1,192.5007,192.5007,58.854,-58.764,-999.00,5.41,-999.0,no,yes,no,300234068245250,SVPGHI,AOML,UNKNOWN,North
2020-07-10T13:01:03Z,1594386063,2020,13,1,192.5424,192.5424,58.864,-58.767,-999.00,5.46,-999.0,no,yes,no,300234068245250,SVPGHI,AOML,UNKNOWN,North
2020-07-10T13:59:57Z,1594389597,2020,14,0,192.5833,192.5833,58.871,-58.771,-999.00,5.56,-999.0,no,yes,no,300234068245250,SVPGHI,AOML,UNKNOWN,North
2020-07-10T15:00:00Z,1594393200,2020,15,0,192.625,192.625,58.876,-58.778,-999.00,5.77,-999.0,no,yes,no,300234068245250,SVPGHI,AOML,UNKNOWN,North
2020-07-10T16:00:02Z,1594396803,2020,16,0,192.6667,192.6667,58.888,-58.788,-999.00,5.77,-999.0,no,yes,no,300234068245250,SVPGHI,AOML,UNKNOWN,North
2020-07-10T17:01:58Z,1594400518,2020,17,2,192.7097,192.7097,58.891,-58.798,-999.00,5.74,-999.0,no,yes,no,300234068245250,SVPGHI,AOML,UNKNOWN,North
2020-07-10T18:00:00Z,1594404000,2020,18,0,192.75,192.75,58.895,-58.812,-999.00,5.67,-999.0,no,yes,no,300234068245250,SVPGHI,AOML,UNKNOWN,North
2020-07-10T19:00:02Z,1594407603,2020,19,0,192.7917,192.7917,58.895,-58.823,-999.00,5.69,-999.0,no,yes,no,300234068245250,SVPGHI,AOML,UNKNOWN,North
2020-07-10T20:00:57Z,1594411258,2020,20,1,192.834,192.834,58.891,-58.837,-999.00,5.66,-999.0,no,yes,no,300234068245250,SVPGHI,AOML,UNKNOWN,North
2020-07-10T21:00:00Z,1594414800,2020,21,0,192.875,192.875,58.886,-58.857,-999.00,5.64,-999.0,no,yes,no,300234068245250,SVPGHI,AOML,UNKNOWN,North
2020-07-10T22:00:02Z,1594418403,2020,22,0,192.9167,192.9167,58.878,-58.88,-999.00,5.61,-999.0,no,yes,no,300234068245250,SVPGHI,AOML,UNKNOWN,North
2020-07-10T23:00:57Z,1594422058,2020,23,1,192.959,192.959,58.872,-58.903,-999.00,5.56,-999.0,no,yes,no,300234068245250,SVPGHI,AOML,UNKNOWN,North
2020-07-11T00:01:00Z,1594425660,2020,0,1,193.0007,193.0007,58.864,-58.924,-999.00,5.54,-999.0,no,yes,no,300234068245250,SVPGHI,AOML,UNKNOWN,North
2020-07-11T01:03:56Z,1594429436,2020,1,4,193.0444,193.0444,58.854,-58.935,-999.00,5.52,-999.0,no,yes,no,300234068245250,SVPGHI,AOML,UNKNOWN,North
2020-07-11T01:59:57Z,1594432797,2020,2,0,193.0833,193.0833,58.858,-58.945,-999.00,5.52,-999.0,no,yes,no,300234068245250,SVPGHI,AOML,UNKNOWN,North
2020-07-11T03:01:00Z,1594436460,2020,3,1,193.1257,193.1257,58.851,-58.944,-999.00,5.49,-999.0,no,yes,no,300234068245250,SVPGHI,AOML,UNKNOWN,North
2020-07-11T04:02:55Z,1594440176,2020,4,3,193.1687,193.1687,58.837,-58.934,-999.00,5.49,-999.0,no,yes,no,300234068245250,SVPGHI,AOML,UNKNOWN,North
2020-07-11T05:00:57Z,1594443658,2020,5,1,193.209,193.209,58.823,-58.929,-999.00,5.47,-999.0,no,yes,no,300234068245250,SVPGHI,AOML,UNKNOWN,North
2020-07-11T06:00:00Z,1594447200,2020,6,0,193.25,193.25,58.81,-58.92,-999.00,5.43,-999.0,no,yes,no,300234068245250,SVPGHI,AOML,UNKNOWN,North
2020-07-11T07:00:02Z,1594450803,2020,7,0,193.2917,193.2917,58.797,-58.912,-999.00,5.4,-999.0,no,yes,no,300234068245250,SVPGHI,AOML,UNKNOWN,North
2020-07-11T07:59:57Z,1594454397,2020,8,0,193.3333,193.3333,58.789,-58.905,-999.00,5.39,-999.0,no,yes,no,300234068245250,SVPGHI,AOML,UNKNOWN,North
2020-07-11T09:00:00Z,1594458000,2020,9,0,193.375,193.375,58.781,-58.892,-999.00,5.45,-999.0,no,yes,no,300234068245250,SVPGHI,AOML,UNKNOWN,North
2020-07-11T10:00:02Z,1594461603,2020,10,0,193.4167,193.4167,58.781,-58.87,-999.00,5.42,-999.0,no,yes,no,300234068245250,SVPGHI,AOML,UNKNOWN,North
2020-07-11T10:59:57Z,1594465197,2020,11,0,193.4583,193.4583,58.78,-58.844,-999.00,5.41,-999.0,no,yes,no,300234068245250,SVPGHI,AOML,UNKNOWN,North
2020-07-11T12:04:01Z,1594469042,2020,12,4,193.5028,193.5028,-90.0,-180.0,-999.00,5.39,-999.0,no,yes,no,300234068245250,SVPGHI,AOML,UNKNOWN,North
2020-07-11T13:03:56Z,1594472636,2020,13,4,193.5444,193.5444,-90.0,-180.0,-999.00,5.41,-999.0,no,yes,no,300234068245250,SVPGHI,AOML,UNKNOWN,North
2020-07-11T14:02:58Z,1594476179,2020,14,3,193.5854,193.5854,58.798,-58.8,-999.00,5.44,-999.0,no,yes,no,300234068245250,SVPGHI,AOML,UNKNOWN,North
2020-07-11T15:01:00Z,1594479660,2020,15,1,193.6257,193.6257,58.803,-58.801,-999.00,5.45,-999.0,no,yes,no,300234068245250,SVPGHI,AOML,UNKNOWN,North
2020-07-11T16:01:03Z,1594483263,2020,16,1,193.6674,193.6674,58.811,-58.8,-999.00,5.45,-999.0,no,yes,no,300234068245250,SVPGHI,AOML,UNKNOWN,North
2020-07-11T16:59:57Z,1594486797,2020,17,0,193.7083,193.7083,58.818,-58.805,-999.00,5.44,-999.0,no,yes,no,300234068245250,SVPGHI,AOML,UNKNOWN,North
2020-07-11T18:04:01Z,1594490642,2020,18,4,193.7528,193.7528,58.825,-58.815,-999.00,5.41,-999.0,no,yes,no,300234068245250,SVPGHI,AOML,UNKNOWN,North
2020-07-11T19:01:03Z,1594494063,2020,19,1,193.7924,193.7924,58.823,-58.828,-999.00,5.41,-999.0,no,yes,no,300234068245250,SVPGHI,AOML,UNKNOWN,North
2020-07-11T20:02:58Z,1594497779,2020,20,3,193.8354,193.8354,58.817,-58.845,-999.00,5.42,-999.0,no,yes,no,300234068245250,SVPGHI,AOML,UNKNOWN,North
2020-07-11T21:00:00Z,1594501200,2020,21,0,193.875,193.875,58.811,-58.858,-999.00,5.43,-999.0,no,yes,no,300234068245250,SVPGHI,AOML,UNKNOWN,North
2020-07-11T22:00:02Z,1594504803,2020,22,0,193.9167,193.9167,58.802,-58.871,-999.00,5.43,-999.0,no,yes,no,300234068245250,SVPGHI,AOML,UNKNOWN,North
2020-07-11T22:59:57Z,1594508397,2020,23,0,193.9583,193.9583,58.792,-58.874,-999.00,5.42,-999.0,no,yes,no,300234068245250,SVPGHI,AOML,UNKNOWN,North
2020-07-12T00:01:00Z,1594512060,2020,0,1,194.0007,194.0007,58.783,-58.865,-999.00,5.44,-999.0,no,yes,no,300234068245250,SVPGHI,AOML,UNKNOWN,North
2020-07-12T01:03:56Z,1594515836,2020,1,4,194.0444,194.0444,58.806,-58.9,-999.00,5.43,-999.0,no,yes,no,300234068245250,SVPGHI,AOML,UNKNOWN,North
2020-07-12T02:03:59Z,1594519439,2020,2,4,194.0861,194.0861,58.771,-58.844,-999.00,5.43,-999.0,no,yes,no,300234068245250,SVPGHI,AOML,UNKNOWN,North
2020-07-12T03:00:00Z,1594522800,2020,3,0,194.125,194.125,58.763,-58.828,-999.00,5.41,-999.0,no,yes,no,300234068245250,SVPGHI,AOML,UNKNOWN,North
2020-07-12T04:00:02Z,1594526403,2020,4,0,194.1667,194.1667,58.759,-58.813,-999.00,5.42,-999.0,no,yes,no,300234068245250,SVPGHI,AOML,UNKNOWN,North
2020-07-12T04:59:57Z,1594529997,2020,5,0,194.2083,194.2083,58.759,-58.797,-999.00,5.42,-999.0,no,yes,no,300234068245250,SVPGHI,AOML,UNKNOWN,North
2020-07-12T06:03:01Z,1594533781,2020,6,3,194.2521,194.2521,58.762,-58.783,-999.00,5.4,-999.0,no,yes,no,300234068245250,SVPGHI,AOML,UNKNOWN,North
2020-07-12T07:00:02Z,1594537203,2020,7,0,194.2917,194.2917,58.765,-58.771,-999.00,5.41,-999.0,no,yes,no,300234068245250,SVPGHI,AOML,UNKNOWN,North
2020-07-12T08:02:58Z,1594540979,2020,8,3,194.3354,194.3354,58.777,-58.76,-999.00,5.42,-999.0,no,yes,no,300234068245250,SVPGHI,AOML,UNKNOWN,North
2020-07-12T09:02:00Z,1594544521,2020,9,2,194.3764,194.3764,58.781,-58.75,-999.00,5.41,-999.0,no,yes,no,300234068245250,SVPGHI,AOML,UNKNOWN,North
2020-07-12T10:01:03Z,1594548063,2020,10,1,194.4174,194.4174,58.786,-58.742,-999.00,5.41,-999.0,no,yes,no,300234068245250,SVPGHI,AOML,UNKNOWN,North
2020-07-12T11:00:57Z,1594551658,2020,11,1,194.459,194.459,58.79,-58.735,-999.00,5.41,-999.0,no,yes,no,300234068245250,SVPGHI,AOML,UNKNOWN,North
2020-07-12T12:01:00Z,1594555260,2020,12,1,194.5007,194.5007,58.795,-58.746,-999.00,5.39,-999.0,no,yes,no,300234068245250,SVPGHI,AOML,UNKNOWN,North
2020-07-12T13:01:03Z,1594558863,2020,13,1,194.5424,194.5424,58.796,-58.766,-999.00,5.37,-999.0,no,yes,no,300234068245250,SVPGHI,AOML,UNKNOWN,North
2020-07-12T13:59:57Z,1594562397,2020,14,0,194.5833,194.5833,58.799,-58.789,-999.00,5.37,-999.0,no,yes,no,300234068245250,SVPGHI,AOML,UNKNOWN,North
2020-07-12T15:01:00Z,1594566060,2020,15,1,194.6257,194.6257,58.801,-58.812,-999.00,5.36,-999.0,no,yes,no,300234068245250,SVPGHI,AOML,UNKNOWN,North
2020-07-12T16:03:56Z,1594569836,2020,16,4,194.6694,194.6694,58.799,-58.828,-999.00,5.34,-999.0,no,yes,no,300234068245250,SVPGHI,AOML,UNKNOWN,North
2020-07-12T16:59:57Z,1594573197,2020,17,0,194.7083,194.7083,58.795,-58.843,-999.00,5.46,-999.0,no,yes,no,300234068245250,SVPGHI,AOML,UNKNOWN,North
2020-07-12T18:00:00Z,1594576800,2020,18,0,194.75,194.75,58.787,-58.852,-999.00,5.44,-999.0,no,yes,no,300234068245250,SVPGHI,AOML,UNKNOWN,North
2020-07-12T19:01:03Z,1594580463,2020,19,1,194.7924,194.7924,58.774,-58.857,-999.00,5.41,-999.0,no,yes,no,300234068245250,SVPGHI,AOML,UNKNOWN,North
2020-07-12T19:59:57Z,1594583997,2020,20,0,194.8333,194.8333,58.76,-58.867,-999.00,5.39,-999.0,no,yes,no,300234068245250,SVPGHI,AOML,UNKNOWN,North
2020-07-12T21:01:00Z,1594587660,2020,21,1,194.8757,194.8757,58.747,-58.867,-999.00,5.39,-999.0,no,yes,no,300234068245250,SVPGHI,AOML,UNKNOWN,North
2020-07-12T22:00:02Z,1594591203,2020,22,0,194.9167,194.9167,58.737,-58.869,-999.00,5.39,-999.0,no,yes,no,300234068245250,SVPGHI,AOML,UNKNOWN,North
2020-07-12T23:00:57Z,1594594858,2020,23,1,194.959,194.959,58.728,-58.865,-999.00,5.39,-999.0,no,yes,no,300234068245250,SVPGHI,AOML,UNKNOWN,North
2020-07-13T00:04:01Z,1594598642,2020,0,4,195.0028,195.0028,58.723,-58.849,-999.00,5.37,-999.0,no,yes,no,300234068245250,SVPGHI,AOML,UNKNOWN,North
2020-07-13T01:03:56Z,1594602236,2020,1,4,195.0444,195.0444,58.723,-58.836,-999.00,5.33,-999.0,no,yes,no,300234068245250,SVPGHI,AOML,UNKNOWN,North
2020-07-13T02:03:59Z,1594605839,2020,2,4,195.0861,195.0861,58.721,-58.82,-999.00,5.3,-999.0,no,yes,no,300234068245250,SVPGHI,AOML,UNKNOWN,North
2020-07-13T03:00:00Z,1594609200,2020,3,0,195.125,195.125,58.713,-58.808,-999.00,5.31,-999.0,no,yes,no,300234068245250,SVPGHI,AOML,UNKNOWN,North
2020-07-13T04:03:56Z,1594613036,2020,4,4,195.1694,195.1694,58.712,-58.791,-999.00,5.31,-999.0,no,yes,no,300234068245250,SVPGHI,AOML,UNKNOWN,North
2020-07-13T04:59:57Z,1594616397,2020,5,0,195.2083,195.2083,58.713,-58.782,-999.00,5.29,-999.0,no,yes,no,300234068245250,SVPGHI,AOML,UNKNOWN,North
2020-07-13T06:00:00Z,1594620000,2020,6,0,195.25,195.25,58.719,-58.774,-999.00,5.28,-999.0,no,yes,no,300234068245250,SVPGHI,AOML,UNKNOWN,North
2020-07-13T07:01:03Z,1594623663,2020,7,1,195.2924,195.2924,58.725,-58.766,-999.00,5.28,-999.0,no,yes,no,300234068245250,SVPGHI,AOML,UNKNOWN,North
2020-07-13T08:03:59Z,1594627439,2020,8,4,195.3361,195.3361,58.731,-58.757,-999.00,5.27,-999.0,no,yes,no,300234068245250,SVPGHI,AOML,UNKNOWN,North
2020-07-13T09:00:00Z,1594630800,2020,9,0,195.375,195.375,58.736,-58.748,-999.00,5.26,-999.0,no,yes,no,300234068245250,SVPGHI,AOML,UNKNOWN,North
2020-07-13T10:00:02Z,1594634403,2020,10,0,195.4167,195.4167,58.737,-58.745,-999.00,5.26,-999.0,no,yes,no,300234068245250,SVPGHI,AOML,UNKNOWN,North
2020-07-13T11:00:57Z,1594638058,2020,11,1,195.459,195.459,58.738,-58.75,-999.00,5.25,-999.0,no,yes,no,300234068245250,SVPGHI,AOML,UNKNOWN,North
2020-07-13T12:04:01Z,1594641842,2020,12,4,195.5028,195.5028,-90.0,-180.0,-999.00,5.26,-999.0,no,yes,no,300234068245250,SVPGHI,AOML,UNKNOWN,North
2020-07-13T13:03:56Z,1594645436,2020,13,4,195.5444,195.5444,-90.0,-180.0,-999.00,5.28,-999.0,no,yes,no,300234068245250,SVPGHI,AOML,UNKNOWN,North